Arcata, CA

7:27 PM PDT on September 24, 2016 (GMT -0700)
Arcata

Weather History for KACV - January, 2014

Change the Weather History Date:

Friday, January 10, 2014

  Actual Average Record
Temperature  
Mean Temperature 49 °F -  
Max Temperature 54 °F 54 °F 62 °F (2009)
Min Temperature 44 °F 39 °F 28 °F (2011)
Degree Days  
Heating Degree Days 16    
Moisture  
Dew Point 48 °F    
Average Humidity 92    
Maximum Humidity 97    
Minimum Humidity 80    
Precipitation  
Precipitation 0.01 in - - ()
Sea Level Pressure  
Sea Level Pressure 30.24 in    
Wind  
Wind Speed 3 mph (SSE)    
Max Wind Speed 9 mph    
Max Gust Speed -    
Visibility 3 miles    
Events Fog    
Averages and records for this station are not official NWS values.
T = Trace of Precipitation, MM = Missing Value Source: NWS Daily Summary

Daily Weather History Graph

Daily Weather History Graph

Search for Another Location

Airport or City:

Trip Planner

Search our weather history database for the weather conditions in past years. The results will help you decide how hot, cold, wet, or windy it might be!

Date:

Astronomy

Jan. 10, 2014 Rise Set
Actual Time 7:40 AM PST 5:07 PM PST
Civil Twilight 7:10 AM PST 5:38 PM PST
Nautical Twilight 6:35 AM PST 6:12 PM PST
Astronomical Twilight 6:02 AM PST 6:45 PM PST
Moon 1:15 PM PST (1/10) 2:53 AM PST (1/10)
Length of Visible Light 10h 28m
Length of Day
9h 27m
Waxing Gibbous, 76% of the Moon is Illuminated
Jan 10
Waxing Gibbous
Jan 15
Full
Jan 23
Last Quarter
Jan 30
New
Feb 6
First Quarter

Hourly Weather History & Observations

Time (PST) Temp. Windchill Dew Point Humidity Pressure Visibility Wind Dir Wind Speed Gust Speed Precip Events Conditions
12:04 AM 51.1 °F - 48.0 °F 89% 30.27 in 6.0 mi SE 5.8 mph - N/A   Overcast
12:13 AM 51.1 °F - 48.0 °F 89% 30.26 in 8.0 mi SE 4.6 mph - N/A   Overcast
12:53 AM 51.1 °F - 48.0 °F 89% 30.29 in 10.0 mi Calm Calm - N/A   Overcast
1:36 AM 51.1 °F - 48.0 °F 89% 30.27 in 2.0 mi Calm Calm - N/A   Overcast
1:44 AM 51.1 °F - 48.0 °F 89% 30.27 in 1.8 mi SE 3.5 mph - N/A   Overcast
1:53 AM 51.1 °F - 48.9 °F 92% 30.29 in 1.8 mi ESE 3.5 mph - N/A   Overcast
2:51 AM 50.0 °F - 48.2 °F 94% 30.28 in 2.5 mi Calm Calm - 0.01 in   Overcast
2:53 AM 50.0 °F - 48.9 °F 96% 30.30 in 2.5 mi Calm Calm - 0.01 in   Overcast
3:01 AM 50.0 °F - 48.9 °F 96% 30.28 in 1.0 mi Calm Calm - N/A   Overcast
3:05 AM 50.0 °F - 48.9 °F 96% 30.28 in 0.8 mi WNW 3.5 mph - N/A   Overcast
3:12 AM 50.0 °F - 48.9 °F 96% 30.28 in 0.2 mi Calm Calm - N/A Fog Fog
3:29 AM 50.0 °F - 48.9 °F 96% 30.28 in 0.2 mi Calm Calm - N/A Fog Fog
3:35 AM 50.0 °F - 48.9 °F 96% 30.28 in 0.5 mi Calm Calm - N/A Fog Fog
3:53 AM 50.0 °F - 48.9 °F 96% 30.30 in 0.8 mi Calm Calm - N/A   Mist
4:04 AM 50.0 °F - 48.9 °F 96% 30.28 in 1.2 mi Calm Calm - N/A   Overcast
4:41 AM 50.0 °F - 48.9 °F 96% 30.27 in 2.0 mi Calm Calm - N/A   Overcast
4:53 AM 50.0 °F - 48.0 °F 93% 30.29 in 0.8 mi WNW 3.5 mph - N/A   Mist
5:00 AM 50.0 °F - 48.0 °F 93% 30.27 in 0.2 mi Calm Calm - N/A Fog Fog
5:08 AM 50.0 °F - 48.0 °F 93% 30.27 in 0.2 mi Calm Calm - N/A Fog Fog
5:53 AM 50.0 °F - 48.0 °F 93% 30.30 in 0.2 mi Calm Calm - N/A Fog Fog
6:27 AM 50.0 °F - 48.0 °F 93% 30.26 in 0.2 mi Calm Calm - N/A Fog Fog
6:33 AM 50.0 °F - 48.0 °F 93% 30.26 in 0.5 mi SE 3.5 mph - N/A Fog Fog
6:39 AM 50.0 °F - 48.0 °F 93% 30.27 in 2.0 mi Calm Calm - N/A   Overcast
6:53 AM 50.0 °F - 48.0 °F 93% 30.29 in 1.0 mi Calm Calm - N/A   Overcast
7:17 AM 50.0 °F - 48.0 °F 93% 30.27 in 1.2 mi Calm Calm - N/A   Overcast
7:53 AM 50.0 °F - 48.0 °F 93% 30.29 in 1.0 mi Calm Calm - N/A   Overcast
8:20 AM 50.0 °F - 48.0 °F 93% 30.27 in 3.0 mi SE 5.8 mph - N/A   Overcast
8:32 AM 50.0 °F - 48.0 °F 93% 30.27 in 1.8 mi SSE 4.6 mph - N/A   Overcast
8:48 AM 50.0 °F - 48.2 °F 94% 30.27 in 2.0 mi South 4.6 mph - N/A   Overcast
8:53 AM 50.0 °F - 48.0 °F 93% 30.30 in 4.0 mi SSE 5.8 mph - N/A   Overcast
9:04 AM 50.0 °F - 48.0 °F 93% 30.28 in 10.0 mi South 4.6 mph - N/A   Overcast
9:40 AM 51.1 °F - 48.0 °F 89% 30.28 in 10.0 mi SSE 4.6 mph - N/A   Scattered Clouds
9:53 AM 52.0 °F - 46.9 °F 83% 30.30 in 10.0 mi SSE 4.6 mph - N/A   Clear
10:53 AM 54.0 °F - 48.0 °F 80% 30.30 in 10.0 mi SSE 3.5 mph - N/A   Clear
11:19 AM 52.0 °F - 48.9 °F 89% 30.28 in 2.5 mi WSW 6.9 mph - N/A   Scattered Clouds
11:21 AM 52.0 °F - 48.0 °F 86% 30.28 in 0.8 mi WSW 8.1 mph - N/A   Mist
11:27 AM 50.0 °F - 48.0 °F 93% 30.27 in 0.2 mi WSW 9.2 mph - N/A Fog Fog
11:42 AM 50.0 °F - 48.0 °F 93% 30.28 in 0.2 mi West 8.1 mph - N/A Fog Fog
11:48 AM 50.0 °F - 48.2 °F 94% 30.27 in 1.0 mi WSW 8.1 mph - N/A   Mist
11:51 AM 50.0 °F - 48.2 °F 94% 30.27 in 2.0 mi WSW 6.9 mph - N/A   Overcast
11:53 AM 50.0 °F - 48.9 °F 96% 30.29 in 3.0 mi West 5.8 mph - N/A   Overcast
12:07 PM 52.0 °F - 48.9 °F 89% 30.27 in 8.0 mi WSW 5.8 mph - N/A   Overcast
12:50 PM 50.0 °F - 48.2 °F 94% 30.25 in 1.5 mi West 4.6 mph - N/A   Overcast
12:53 PM 50.0 °F - 48.0 °F 93% 30.27 in 0.5 mi West 4.6 mph - N/A Fog Fog
1:03 PM 50.0 °F - 48.0 °F 93% 30.24 in 0.2 mi West 3.5 mph - N/A Fog Fog
1:14 PM 50.0 °F - 48.0 °F 93% 30.24 in 1.0 mi Variable 3.5 mph - N/A   Overcast
1:25 PM 50.0 °F - 48.9 °F 96% 30.24 in 2.5 mi Calm Calm - N/A   Overcast
1:53 PM 50.0 °F - 48.0 °F 93% 30.24 in 1.5 mi Calm Calm - N/A   Overcast
2:16 PM 50.0 °F - 48.0 °F 93% 30.22 in 0.8 mi Calm Calm - N/A   Overcast
2:27 PM 50.0 °F - 48.9 °F 96% 30.21 in 1.2 mi Calm Calm - N/A   Overcast
2:37 PM 50.0 °F - 46.9 °F 89% 30.21 in 0.5 mi Calm Calm - N/A Fog Fog
2:53 PM 50.0 °F - 48.0 °F 93% 30.23 in 1.0 mi Calm Calm - N/A   Overcast
3:07 PM 50.0 °F - 48.0 °F 93% 30.20 in 2.5 mi Calm Calm - N/A   Overcast
3:17 PM 51.1 °F - 48.0 °F 89% 30.20 in 3.0 mi Calm Calm - N/A   Overcast
3:38 PM 51.1 °F - 48.0 °F 89% 30.20 in 2.5 mi Calm Calm - N/A   Overcast
3:51 PM 51.8 °F - 48.2 °F 88% 30.20 in 1.5 mi Calm Calm - N/A   Overcast
3:53 PM 51.1 °F - 48.0 °F 89% 30.22 in 1.5 mi Calm Calm - N/A   Overcast
4:10 PM 51.1 °F - 48.9 °F 92% 30.20 in 2.5 mi Calm Calm - N/A   Overcast
4:20 PM 52.0 °F - 48.9 °F 89% 30.20 in 3.0 mi Calm Calm - N/A   Overcast
4:42 PM 51.1 °F - 48.0 °F 89% 30.20 in 1.8 mi Calm Calm - N/A   Overcast
4:53 PM 50.0 °F - 46.9 °F 89% 30.22 in 0.5 mi Calm Calm - N/A Fog Fog
4:57 PM 48.9 °F - 46.9 °F 93% 30.20 in 0.2 mi Calm Calm - N/A Fog Fog
5:12 PM 48.0 °F - 46.0 °F 93% 30.19 in 0.2 mi SSE 3.5 mph - N/A Fog Fog
5:29 PM 48.9 °F - 46.9 °F 93% 30.19 in 1.0 mi SE 4.6 mph - N/A   Mostly Cloudy
5:32 PM 48.9 °F - 46.9 °F 93% 30.19 in 3.0 mi SE 4.6 mph - N/A   Mostly Cloudy
5:53 PM 48.9 °F - 46.9 °F 93% 30.21 in 9.0 mi ESE 4.6 mph - N/A   Mostly Cloudy
6:53 PM 48.0 °F - 45.0 °F 89% 30.19 in 7.0 mi East 3.5 mph - N/A   Scattered Clouds
7:53 PM 48.0 °F - 46.0 °F 93% 30.18 in 10.0 mi East 4.6 mph - N/A   Clear
8:51 PM 44.6 °F - 42.8 °F 93% 30.17 in 1.8 mi Calm Calm - N/A   Mostly Cloudy
8:53 PM 45.0 °F - 43.0 °F 93% 30.19 in 1.8 mi Calm Calm - N/A   Mostly Cloudy
8:59 PM 45.0 °F - 44.1 °F 97% 30.17 in 3.0 mi Calm Calm - N/A   Mostly Cloudy
9:53 PM 45.0 °F 43.5 °F 43.0 °F 93% 30.18 in 3.0 mi ESE 3.5 mph - N/A   Clear
9:59 PM 45.0 °F 43.5 °F 43.0 °F 93% 30.16 in 1.8 mi ESE 3.5 mph - N/A   Clear
10:27 PM 46.0 °F 43.9 °F 43.0 °F 89% 30.14 in 3.0 mi East 4.6 mph - N/A   Clear
10:53 PM 46.9 °F - 45.0 °F 93% 30.14 in 10.0 mi ESE 6.9 mph - N/A   Clear
11:53 PM 45.0 °F 43.5 °F 43.0 °F 93% 30.14 in 10.0 mi East 3.5 mph - N/A   Clear